Overview Statistics Trail Chart Weather Telemetry Raw packets
 

This is the latest recevied weather packets stored in our database for station/object K6CEG. If no packets are shown the sender has not sent any weather packets the latest 10 day(s).

<< 54 55 56 57 58 59 60 >>
Time Temp. Humidity Pressure Rain* Wind** Luminosity Snow
1788310199 27.78° C 25% 1015.7 hPa 0 mm - 23 W/m² -
1788309897 27.78° C 25% 1015.6 hPa 0 mm - 61 W/m² -
1788309593 27.78° C 22% 1015.7 hPa 0 mm - 24 W/m² -
1788309288 27.78° C 21% 1015.8 hPa 0 mm - 24 W/m² -
1788308983 27.78° C 23% 1015.6 hPa 0 mm - 25 W/m² -
1788308679 28.33° C 23% 1015.5 hPa 0 mm - 26 W/m² -
1788308378 28.33° C 25% 1015.7 hPa 0 mm - 147 W/m² -
1788308073 28.33° C 26% 1015.7 hPa 0 mm - 224 W/m² -
1788307768 28.89° C 25% 1015.5 hPa 0 mm - 240 W/m² -
1788307463 28.89° C 24% 1015.5 hPa 0 mm - 294 W/m² -
1788307158 30° C 29% 1015.4 hPa 0 mm - 212 W/m² -
1788306853 30° C 24% 1015.6 hPa 0 mm - 30 W/m² -
1788306548 29.44° C 24% 1015.7 hPa 0 mm - 101 W/m² -
1788306241 29.44° C 25% 1015.8 hPa 0 mm - 31 W/m² -
1788305936 28.89° C 27% 1015.8 hPa 0 mm - 30 W/m² -
1788305632 28.89° C 27% 1015.5 hPa 0 mm - 51 W/m² -
1788305329 29.44° C 27% 1015.9 hPa 0 mm - 33 W/m² -
1788305028 29.44° C 26% 1015.6 hPa 0 mm - 33 W/m² -
1788304724 29.44° C 27% 1015.8 hPa 0 mm - 31 W/m² -
1788304421 29.44° C 24% 1015.7 hPa 0 mm - 32 W/m² -
1788304117 29.44° C 34% 1015.9 hPa 0 mm - 33 W/m² -
1788303816 28.89° C 32% 1016.1 hPa 0 mm - 33 W/m² -
1788303512 29.44° C 32% 1015.7 hPa 0 mm - 34 W/m² -
1788303211 29.44° C 27% 1016 hPa 0 mm - 33 W/m² -
1788302906 29.44° C 30% 1015.6 hPa 0 mm - 71 W/m² -

* Rain latest hour (hover to see other rain measurements)
** Current wind speed in m/s (hover to see current wind gust speed)